Year,Month,Day,Hour,Minute,Value (Times are PST for temperature in C)
2014,05,01,00,00,14.30
2014,05,01,00,01,14.20
2014,05,01,00,02,14.20
2014,05,01,00,03,14.20
2014,05,01,00,04,14.20
2014,05,01,00,05,14.10
2014,05,01,00,06,14.10
2014,05,01,00,07,14.00
2014,05,01,00,08,14.00
2014,05,01,00,09,14.00
2014,05,01,00,10,14.00
2014,05,01,00,11,14.00
2014,05,01,00,12,14.00
2014,05,01,00,13,13.90
2014,05,01,00,14,13.90
2014,05,01,00,15,13.90
2014,05,01,00,16,13.90
2014,05,01,00,17,13.90
2014,05,01,00,18,13.90
2014,05,01,00,19,13.90
2014,05,01,00,20,13.90
2014,05,01,00,21,13.90
2014,05,01,00,22,13.90
2014,05,01,00,23,13.90
2014,05,01,00,24,13.90
2014,05,01,00,25,13.80
2014,05,01,00,26,13.80
2014,05,01,00,27,13.80
2014,05,01,00,28,13.80
2014,05,01,00,29,13.70
2014,05,01,00,30,13.70
2014,05,01,00,31,13.70
2014,05,01,00,32,13.70
2014,05,01,00,33,13.70
2014,05,01,00,34,13.70
2014,05,01,00,35,13.70
2014,05,01,00,36,13.70
2014,05,01,00,37,13.70
2014,05,01,00,38,13.70
2014,05,01,00,39,13.70
2014,05,01,00,40,13.70
2014,05,01,00,41,13.70
2014,05,01,00,42,13.70
2014,05,01,00,43,13.60
2014,05,01,00,44,13.60
2014,05,01,00,45,13.60
2014,05,01,00,46,13.60
2014,05,01,00,47,13.60
2014,05,01,00,48,13.50
2014,05,01,00,49,13.50
2014,05,01,00,50,13.50
2014,05,01,00,51,13.50
2014,05,01,00,52,13.40
2014,05,01,00,53,13.40
2014,05,01,00,54,13.40
2014,05,01,00,55,13.40
2014,05,01,00,56,13.30
2014,05,01,00,57,13.30
2014,05,01,00,58,13.30
2014,05,01,00,59,13.30
2014,05,01,01,00,13.30
2014,05,01,01,01,13.30
2014,05,01,01,02,13.30
2014,05,01,01,03,13.30
2014,05,01,01,04,13.30
2014,05,01,01,05,13.30
2014,05,01,01,06,13.30
2014,05,01,01,07,13.30
2014,05,01,01,08,13.30
2014,05,01,01,09,13.30
2014,05,01,01,10,13.30
2014,05,01,01,11,13.30
2014,05,01,01,12,13.30
2014,05,01,01,13,13.30
2014,05,01,01,14,13.30
2014,05,01,01,15,13.30
2014,05,01,01,16,13.30
2014,05,01,01,17,13.30
2014,05,01,01,18,13.30
2014,05,01,01,19,13.30
2014,05,01,01,20,13.30
2014,05,01,01,21,13.30
2014,05,01,01,22,13.30
2014,05,01,01,23,13.30
2014,05,01,01,24,13.30
2014,05,01,01,25,13.30
2014,05,01,01,26,13.40
2014,05,01,01,27,13.40
2014,05,01,01,28,13.40
2014,05,01,01,29,13.40
2014,05,01,01,30,13.40
2014,05,01,01,31,13.40
2014,05,01,01,32,13.40
2014,05,01,01,33,13.40
2014,05,01,01,34,13.40
2014,05,01,01,35,13.40
2014,05,01,01,36,13.40
2014,05,01,01,37,13.40
2014,05,01,01,38,13.40
2014,05,01,01,39,13.50
2014,05,01,01,40,13.50
2014,05,01,01,41,13.50
2014,05,01,01,42,13.50
2014,05,01,01,43,13.50
2014,05,01,01,44,13.50
2014,05,01,01,45,13.50
2014,05,01,01,46,13.50
2014,05,01,01,47,13.50
2014,05,01,01,48,13.50
2014,05,01,01,49,13.50
2014,05,01,01,50,13.50
2014,05,01,01,51,13.50
2014,05,01,01,52,13.60
2014,05,01,01,53,13.70
2014,05,01,01,54,13.70
2014,05,01,01,55,13.70
2014,05,01,01,56,13.80
2014,05,01,01,57,13.90
2014,05,01,01,58,13.90
2014,05,01,01,59,13.90
2014,05,01,02,00,14.00
2014,05,01,02,01,14.00
2014,05,01,02,02,14.00
2014,05,01,02,03,14.10
2014,05,01,02,04,14.10
2014,05,01,02,05,14.10
2014,05,01,02,06,14.10
2014,05,01,02,07,14.10
2014,05,01,02,08,14.10
2014,05,01,02,09,14.10
2014,05,01,02,10,14.10
2014,05,01,02,11,14.10
2014,05,01,02,12,14.10
2014,05,01,02,13,14.10
2014,05,01,02,14,14.10
2014,05,01,02,15,14.20
2014,05,01,02,16,14.20
2014,05,01,02,17,14.20
2014,05,01,02,18,14.20
2014,05,01,02,19,14.20
2014,05,01,02,20,14.10
2014,05,01,02,21,14.10
2014,05,01,02,22,14.10
2014,05,01,02,23,14.10
2014,05,01,02,24,14.10
2014,05,01,02,25,14.10
2014,05,01,02,26,14.10
2014,05,01,02,27,14.10
2014,05,01,02,28,14.10
2014,05,01,02,29,14.10
2014,05,01,02,30,14.10
2014,05,01,02,31,14.10
2014,05,01,02,32,14.10
2014,05,01,02,33,14.10
2014,05,01,02,34,14.10
2014,05,01,02,35,14.10
2014,05,01,02,36,14.10
2014,05,01,02,37,14.10
2014,05,01,02,38,14.10
2014,05,01,02,39,14.10
2014,05,01,02,40,14.10
2014,05,01,02,41,14.10
2014,05,01,02,42,14.10
2014,05,01,02,43,14.10
2014,05,01,02,44,14.10
2014,05,01,02,45,14.10
2014,05,01,02,46,14.10
2014,05,01,02,47,14.10
2014,05,01,02,48,14.20
2014,05,01,02,49,14.20
2014,05,01,02,50,14.20
2014,05,01,02,51,14.20
2014,05,01,02,52,14.20
2014,05,01,02,53,14.20
2014,05,01,02,54,14.20
2014,05,01,02,55,14.20
2014,05,01,02,56,14.20
2014,05,01,02,57,14.20
2014,05,01,02,58,14.20
2014,05,01,02,59,14.20
2014,05,01,03,00,14.20
2014,05,01,03,01,14.20
2014,05,01,03,02,14.20
2014,05,01,03,03,14.30
2014,05,01,03,04,14.30
2014,05,01,03,05,14.30
2014,05,01,03,06,14.30
2014,05,01,03,07,14.40
2014,05,01,03,08,14.40
2014,05,01,03,09,14.40
2014,05,01,03,10,14.50
2014,05,01,03,11,14.50
2014,05,01,03,12,14.60
2014,05,01,03,13,14.60
2014,05,01,03,14,14.60
2014,05,01,03,15,14.60
2014,05,01,03,16,14.60
2014,05,01,03,17,14.60
2014,05,01,03,18,14.50
2014,05,01,03,19,14.50
2014,05,01,03,20,14.60
2014,05,01,03,21,14.60
2014,05,01,03,22,14.50
2014,05,01,03,23,14.50
2014,05,01,03,24,14.50
2014,05,01,03,25,14.50
2014,05,01,03,26,14.50
2014,05,01,03,27,14.50
2014,05,01,03,28,14.50
2014,05,01,03,29,14.50
2014,05,01,03,30,14.60
2014,05,01,03,31,14.60
2014,05,01,03,32,14.60
2014,05,01,03,33,14.70
2014,05,01,03,34,14.70
2014,05,01,03,35,14.70
2014,05,01,03,36,14.70
2014,05,01,03,37,14.70
2014,05,01,03,38,14.70
2014,05,01,03,39,14.70
2014,05,01,03,40,14.70
2014,05,01,03,41,14.80
2014,05,01,03,42,14.80
2014,05,01,03,43,14.70
2014,05,01,03,44,14.70
2014,05,01,03,45,14.70
2014,05,01,03,46,14.70
2014,05,01,03,47,14.70
2014,05,01,03,48,14.70
2014,05,01,03,49,14.60
2014,05,01,03,50,14.60
2014,05,01,03,51,14.60
2014,05,01,03,52,14.60
2014,05,01,03,53,14.50
2014,05,01,03,54,14.50
2014,05,01,03,55,14.40
2014,05,01,03,56,14.40
2014,05,01,03,57,14.30
2014,05,01,03,58,14.30
2014,05,01,03,59,14.40
2014,05,01,04,00,14.40
2014,05,01,04,01,14.30
2014,05,01,04,02,14.30
2014,05,01,04,03,14.20
2014,05,01,04,04,14.20
2014,05,01,04,05,14.20
2014,05,01,04,06,14.20
2014,05,01,04,07,14.20
2014,05,01,04,08,14.20
2014,05,01,04,09,14.10
2014,05,01,04,10,14.10
2014,05,01,04,11,14.10
2014,05,01,04,12,14.10
2014,05,01,04,13,14.10
2014,05,01,04,14,14.10
2014,05,01,04,15,14.10
2014,05,01,04,16,14.10
2014,05,01,04,17,14.20
2014,05,01,04,18,14.20
2014,05,01,04,19,14.20
2014,05,01,04,20,14.20
2014,05,01,04,21,14.20
2014,05,01,04,22,14.20
2014,05,01,04,23,14.20
2014,05,01,04,24,14.20
2014,05,01,04,25,14.20
2014,05,01,04,26,14.20
2014,05,01,04,27,14.20
2014,05,01,04,28,14.20
2014,05,01,04,29,14.20
2014,05,01,04,30,14.20
2014,05,01,04,31,14.20
2014,05,01,04,32,14.20
2014,05,01,04,33,14.20
2014,05,01,04,34,14.20
2014,05,01,04,35,14.20
2014,05,01,04,36,14.20
2014,05,01,04,37,14.20
2014,05,01,04,38,14.20
2014,05,01,04,39,14.10
2014,05,01,04,40,14.10
2014,05,01,04,41,14.00
2014,05,01,04,42,14.00
2014,05,01,04,43,13.90
2014,05,01,04,44,13.90
2014,05,01,04,45,13.90
2014,05,01,04,46,13.80
2014,05,01,04,47,13.80
2014,05,01,04,48,13.80
2014,05,01,04,49,13.70
2014,05,01,04,50,13.70
2014,05,01,04,51,13.70
2014,05,01,04,52,13.70
2014,05,01,04,53,13.70
2014,05,01,04,54,13.70
2014,05,01,04,55,13.70
2014,05,01,04,56,13.70
2014,05,01,04,57,13.70
2014,05,01,04,58,13.70
2014,05,01,04,59,13.70
2014,05,01,05,00,13.70
2014,05,01,05,01,13.70
2014,05,01,05,02,13.70
2014,05,01,05,03,13.70
2014,05,01,05,04,13.70
2014,05,01,05,05,13.70
2014,05,01,05,06,13.70
2014,05,01,05,07,13.70
2014,05,01,05,08,13.60
2014,05,01,05,09,13.60
2014,05,01,05,10,13.60
2014,05,01,05,11,13.60
2014,05,01,05,12,13.60
2014,05,01,05,13,13.60
2014,05,01,05,14,13.60
2014,05,01,05,15,13.60
2014,05,01,05,16,13.60
2014,05,01,05,17,13.60
2014,05,01,05,18,13.60
2014,05,01,05,19,13.60
2014,05,01,05,20,13.60
2014,05,01,05,21,13.60
2014,05,01,05,22,13.60
2014,05,01,05,23,13.60
2014,05,01,05,24,13.60
2014,05,01,05,25,13.60
2014,05,01,05,26,13.60
2014,05,01,05,27,13.60
2014,05,01,05,28,13.70
2014,05,01,05,29,13.70
2014,05,01,05,30,13.70
2014,05,01,05,31,13.70
2014,05,01,05,32,13.70
2014,05,01,05,33,13.70
2014,05,01,05,34,13.70
2014,05,01,05,35,13.70
2014,05,01,05,36,13.70
2014,05,01,05,37,13.60
2014,05,01,05,38,13.60
2014,05,01,05,39,13.60
2014,05,01,05,40,13.60
2014,05,01,05,41,13.50
2014,05,01,05,42,13.50
2014,05,01,05,43,13.50
2014,05,01,05,44,13.50
2014,05,01,05,45,13.50
2014,05,01,05,46,13.40
2014,05,01,05,47,13.40
2014,05,01,05,48,13.40
2014,05,01,05,49,13.40
2014,05,01,05,50,13.40
2014,05,01,05,51,13.30
2014,05,01,05,52,13.30
2014,05,01,05,53,13.30
2014,05,01,05,54,13.30
2014,05,01,05,55,13.30
2014,05,01,05,56,13.30
2014,05,01,05,57,13.20
2014,05,01,05,58,13.20
2014,05,01,05,59,13.20
2014,05,01,06,00,13.20
2014,05,01,06,01,13.10
2014,05,01,06,02,13.10
2014,05,01,06,03,13.10
2014,05,01,06,04,13.10
2014,05,01,06,05,13.10
2014,05,01,06,06,13.10
2014,05,01,06,07,13.10
2014,05,01,06,08,13.10
2014,05,01,06,09,13.10
2014,05,01,06,10,13.10
2014,05,01,06,11,13.10
2014,05,01,06,12,13.10
2014,05,01,06,13,13.20
2014,05,01,06,14,13.20
2014,05,01,06,15,13.20
2014,05,01,06,16,13.20
2014,05,01,06,17,13.20
2014,05,01,06,18,13.20
2014,05,01,06,19,13.20
2014,05,01,06,20,13.20
2014,05,01,06,21,13.20
2014,05,01,06,22,13.20
2014,05,01,06,23,13.20
2014,05,01,06,24,13.20
2014,05,01,06,25,13.20
2014,05,01,06,26,13.20
2014,05,01,06,27,13.20
2014,05,01,06,28,13.20
2014,05,01,06,29,13.20
2014,05,01,06,30,13.20
2014,05,01,06,31,13.20
2014,05,01,06,32,13.30
2014,05,01,06,33,13.30
2014,05,01,06,34,13.30
2014,05,01,06,35,13.30
2014,05,01,06,36,13.30
2014,05,01,06,37,13.30
2014,05,01,06,38,13.30
2014,05,01,06,39,13.30
2014,05,01,06,40,13.30
2014,05,01,06,41,13.30
2014,05,01,06,42,13.30
2014,05,01,06,43,13.40
2014,05,01,06,44,13.40
2014,05,01,06,45,13.40
2014,05,01,06,46,13.50
2014,05,01,06,47,13.50
2014,05,01,06,48,13.50
2014,05,01,06,49,13.50
2014,05,01,06,50,13.50
2014,05,01,06,51,13.50
2014,05,01,06,52,13.60
2014,05,01,06,53,13.60
2014,05,01,06,54,13.60
2014,05,01,06,55,13.60
2014,05,01,06,56,13.60
2014,05,01,06,57,13.60
2014,05,01,06,58,13.60
2014,05,01,06,59,13.60
2014,05,01,07,00,13.60
2014,05,01,07,01,13.60
2014,05,01,07,02,13.60
2014,05,01,07,03,13.70
2014,05,01,07,04,13.70
2014,05,01,07,05,13.70
2014,05,01,07,06,13.70
2014,05,01,07,07,13.70
2014,05,01,07,08,13.80
2014,05,01,07,09,13.80
2014,05,01,07,10,13.90
2014,05,01,07,11,13.90
2014,05,01,07,12,13.90
2014,05,01,07,13,13.90
2014,05,01,07,14,14.00
2014,05,01,07,15,14.00
2014,05,01,07,16,14.00
2014,05,01,07,17,14.00
2014,05,01,07,18,14.00
2014,05,01,07,19,14.00
2014,05,01,07,20,14.00
2014,05,01,07,21,14.00
2014,05,01,07,22,14.00
2014,05,01,07,23,14.00
2014,05,01,07,24,14.00
2014,05,01,07,25,14.00
2014,05,01,07,26,14.00
2014,05,01,07,27,14.00
2014,05,01,07,28,14.00
2014,05,01,07,29,14.00
2014,05,01,07,30,14.00
2014,05,01,07,31,14.10
2014,05,01,07,32,14.10
2014,05,01,07,33,14.10
2014,05,01,07,34,14.10
2014,05,01,07,35,14.20
2014,05,01,07,36,14.20
2014,05,01,07,37,14.20
2014,05,01,07,38,14.20
2014,05,01,07,39,14.20
2014,05,01,07,40,14.20
2014,05,01,07,41,14.20
2014,05,01,07,42,14.20
2014,05,01,07,43,14.20
2014,05,01,07,44,14.30
2014,05,01,07,45,14.30
2014,05,01,07,46,14.40
2014,05,01,07,47,14.40
2014,05,01,07,48,14.40
2014,05,01,07,49,14.40
2014,05,01,07,50,14.50
2014,05,01,07,51,14.50
2014,05,01,07,52,14.50
2014,05,01,07,53,14.50
2014,05,01,07,54,14.40
2014,05,01,07,55,14.40
2014,05,01,07,56,14.50
2014,05,01,07,57,14.50
2014,05,01,07,58,14.50
2014,05,01,07,59,14.50
2014,05,01,08,00,14.50
2014,05,01,08,01,14.60
2014,05,01,08,02,14.60
2014,05,01,08,03,14.60
2014,05,01,08,04,14.60
2014,05,01,08,05,14.70
2014,05,01,08,06,14.70
2014,05,01,08,07,14.80
2014,05,01,08,08,14.80
2014,05,01,08,09,14.80
2014,05,01,08,10,14.80
2014,05,01,08,11,14.80
2014,05,01,08,12,14.80
2014,05,01,08,13,14.80
2014,05,01,08,14,14.80
2014,05,01,08,15,14.90
2014,05,01,08,16,14.90
2014,05,01,08,17,14.90
2014,05,01,08,18,14.90
2014,05,01,08,19,14.90
2014,05,01,08,20,14.90
2014,05,01,08,21,14.90
2014,05,01,08,22,14.90
2014,05,01,08,23,14.90
2014,05,01,08,24,15.00
2014,05,01,08,25,15.00
2014,05,01,08,26,15.00
2014,05,01,08,27,15.10
2014,05,01,08,28,15.10
2014,05,01,08,29,15.20
2014,05,01,08,30,15.20
2014,05,01,08,31,15.30
2014,05,01,08,32,15.30
2014,05,01,08,33,15.30
2014,05,01,08,34,15.40
2014,05,01,08,35,15.50
2014,05,01,08,36,15.50
2014,05,01,08,37,15.60
2014,05,01,08,38,15.60
2014,05,01,08,39,15.70
2014,05,01,08,40,15.70
2014,05,01,08,41,15.70
2014,05,01,08,42,15.70
2014,05,01,08,43,15.70
2014,05,01,08,44,15.80
2014,05,01,08,45,15.80
2014,05,01,08,46,15.80
2014,05,01,08,47,15.90
2014,05,01,08,48,16.00
2014,05,01,08,49,16.10
2014,05,01,08,50,16.10
2014,05,01,08,51,16.20
2014,05,01,08,52,16.30
2014,05,01,08,53,16.30
2014,05,01,08,54,16.40
2014,05,01,08,55,16.40
2014,05,01,08,56,16.40
2014,05,01,08,57,16.40
2014,05,01,08,58,16.50
2014,05,01,08,59,16.60
2014,05,01,09,00,16.60
2014,05,01,09,01,16.50
2014,05,01,09,02,16.40
2014,05,01,09,03,16.40
2014,05,01,09,04,16.40
2014,05,01,09,05,16.50
2014,05,01,09,06,16.60
2014,05,01,09,07,16.60
2014,05,01,09,08,16.60
2014,05,01,09,09,16.60
2014,05,01,09,10,16.50
2014,05,01,09,11,16.40
2014,05,01,09,12,16.50
2014,05,01,09,13,16.60
2014,05,01,09,14,16.60
2014,05,01,09,15,16.60
2014,05,01,09,16,16.60
2014,05,01,09,17,16.60
2014,05,01,09,18,16.60
2014,05,01,09,19,16.50
2014,05,01,09,20,16.40
2014,05,01,09,21,16.40
2014,05,01,09,22,16.40
2014,05,01,09,23,16.40
2014,05,01,09,24,16.40
2014,05,01,09,25,16.40
2014,05,01,09,26,16.40
2014,05,01,09,27,16.40
2014,05,01,09,28,16.40
2014,05,01,09,29,16.50
2014,05,01,09,30,16.60
2014,05,01,09,31,16.60
2014,05,01,09,32,16.60
2014,05,01,09,33,16.70
2014,05,01,09,34,16.80
2014,05,01,09,35,16.80
2014,05,01,09,36,16.90
2014,05,01,09,37,16.90
2014,05,01,09,38,16.90
2014,05,01,09,39,17.00
2014,05,01,09,40,17.00
2014,05,01,09,41,17.10
2014,05,01,09,42,17.20
2014,05,01,09,43,17.30
2014,05,01,09,44,17.30
2014,05,01,09,45,17.40
2014,05,01,09,46,17.50
2014,05,01,09,47,17.50
2014,05,01,09,48,17.60
2014,05,01,09,49,17.60
2014,05,01,09,50,17.60
2014,05,01,09,51,17.60
2014,05,01,09,52,17.60
2014,05,01,09,53,17.60
2014,05,01,09,54,17.60
2014,05,01,09,55,17.60
2014,05,01,09,56,17.60
2014,05,01,09,57,17.50
2014,05,01,09,58,17.50
2014,05,01,09,59,17.50
2014,05,01,10,00,17.60
2014,05,01,10,01,17.60
2014,05,01,10,02,17.70
2014,05,01,10,03,17.70
2014,05,01,10,04,17.80
2014,05,01,10,05,17.80
2014,05,01,10,06,17.90
2014,05,01,10,07,17.90
2014,05,01,10,08,17.90
2014,05,01,10,09,17.80
2014,05,01,10,10,17.70
2014,05,01,10,11,17.70
2014,05,01,10,12,17.60
2014,05,01,10,13,17.70
2014,05,01,10,14,17.70
2014,05,01,10,15,17.80
2014,05,01,10,16,17.80
2014,05,01,10,17,17.80
2014,05,01,10,18,17.80
2014,05,01,10,19,17.80
2014,05,01,10,20,17.80
2014,05,01,10,21,17.80
2014,05,01,10,22,17.80
2014,05,01,10,23,17.80
2014,05,01,10,24,17.80
2014,05,01,10,25,17.80
2014,05,01,10,26,17.90
2014,05,01,10,27,17.90
2014,05,01,10,28,17.90
2014,05,01,10,29,18.00
2014,05,01,10,30,18.10
2014,05,01,10,31,18.10
2014,05,01,10,32,18.20
2014,05,01,10,33,18.20
2014,05,01,10,34,18.20
2014,05,01,10,35,18.20
2014,05,01,10,36,18.20
2014,05,01,10,37,18.20
2014,05,01,10,38,18.20
2014,05,01,10,39,18.20
2014,05,01,10,40,18.30
2014,05,01,10,41,18.30
2014,05,01,10,42,18.40
2014,05,01,10,43,18.50
2014,05,01,10,44,18.50
2014,05,01,10,45,18.50
2014,05,01,10,46,18.50
2014,05,01,10,47,18.40
2014,05,01,10,48,18.40
2014,05,01,10,49,18.40
2014,05,01,10,50,18.30
2014,05,01,10,51,18.30
2014,05,01,10,52,18.30
2014,05,01,10,53,18.30
2014,05,01,10,54,18.30
2014,05,01,10,55,18.30
2014,05,01,10,56,18.30
2014,05,01,10,57,18.40
2014,05,01,10,58,18.40
2014,05,01,10,59,18.40
2014,05,01,11,00,18.40
2014,05,01,11,01,18.40
2014,05,01,11,02,18.40
2014,05,01,11,03,18.40
2014,05,01,11,04,18.40
2014,05,01,11,05,18.40
2014,05,01,11,06,18.40
2014,05,01,11,07,18.40
2014,05,01,11,08,18.40
2014,05,01,11,09,18.40
2014,05,01,11,10,18.40
2014,05,01,11,11,18.40
2014,05,01,11,12,18.30
2014,05,01,11,13,18.30
2014,05,01,11,14,18.30
2014,05,01,11,15,18.40
2014,05,01,11,16,18.40
2014,05,01,11,17,18.50
2014,05,01,11,18,18.50
2014,05,01,11,19,18.50
2014,05,01,11,20,18.60
2014,05,01,11,21,18.50
2014,05,01,11,22,18.40
2014,05,01,11,23,18.40
2014,05,01,11,24,18.40
2014,05,01,11,25,18.40
2014,05,01,11,26,18.30
2014,05,01,11,27,18.40
2014,05,01,11,28,18.40
2014,05,01,11,29,18.50
2014,05,01,11,30,18.60
2014,05,01,11,31,18.60
2014,05,01,11,32,18.70
2014,05,01,11,33,18.80
2014,05,01,11,34,18.80
2014,05,01,11,35,18.80
2014,05,01,11,36,18.80
2014,05,01,11,37,18.80
2014,05,01,11,38,18.80
2014,05,01,11,39,18.70
2014,05,01,11,40,18.60
2014,05,01,11,41,18.60
2014,05,01,11,42,18.60
2014,05,01,11,43,18.70
2014,05,01,11,44,18.70
2014,05,01,11,45,18.80
2014,05,01,11,46,18.70
2014,05,01,11,47,18.70
2014,05,01,11,48,18.80
2014,05,01,11,49,18.80
2014,05,01,11,50,18.90
2014,05,01,11,51,18.90
2014,05,01,11,52,18.90
2014,05,01,11,53,18.90
2014,05,01,11,54,18.90
2014,05,01,11,55,18.90
2014,05,01,11,56,18.90
2014,05,01,11,57,18.90
2014,05,01,11,58,18.90
2014,05,01,11,59,18.90
2014,05,01,12,00,18.90
2014,05,01,12,01,18.90
2014,05,01,12,02,18.90
2014,05,01,12,03,18.90
2014,05,01,12,04,18.80
2014,05,01,12,05,18.80
2014,05,01,12,06,18.90
2014,05,01,12,07,18.90
2014,05,01,12,08,18.90
2014,05,01,12,09,18.90
2014,05,01,12,10,18.90
2014,05,01,12,11,18.90
2014,05,01,12,12,18.90
2014,05,01,12,13,18.90
2014,05,01,12,14,18.90
2014,05,01,12,15,18.90
2014,05,01,12,16,18.90
2014,05,01,12,17,18.90
2014,05,01,12,18,18.90
2014,05,01,12,19,18.90
2014,05,01,12,20,18.90
2014,05,01,12,21,18.90
2014,05,01,12,22,18.90
2014,05,01,12,23,19.00
2014,05,01,12,24,19.10
2014,05,01,12,25,19.10
2014,05,01,12,26,19.10
2014,05,01,12,27,19.10
2014,05,01,12,28,19.20
2014,05,01,12,29,19.30
2014,05,01,12,30,19.40
2014,05,01,12,31,19.60
2014,05,01,12,32,19.60
2014,05,01,12,33,19.70
2014,05,01,12,34,19.80
2014,05,01,12,35,19.80
2014,05,01,12,36,19.90
2014,05,01,12,37,19.90
2014,05,01,12,38,19.90
2014,05,01,12,39,19.90
2014,05,01,12,40,19.90
2014,05,01,12,41,19.90
2014,05,01,12,42,19.90
2014,05,01,12,43,19.90
2014,05,01,12,44,19.90
2014,05,01,12,45,19.90
2014,05,01,12,46,19.90
2014,05,01,12,47,20.00
2014,05,01,12,48,20.10
2014,05,01,12,49,20.20
2014,05,01,12,50,20.20
2014,05,01,12,51,20.20
2014,05,01,12,52,20.20
2014,05,01,12,53,20.20
2014,05,01,12,54,20.20
2014,05,01,12,55,20.20
2014,05,01,12,56,20.20
2014,05,01,12,57,20.20
2014,05,01,12,58,20.20
2014,05,01,12,59,20.20
2014,05,01,13,00,20.20
2014,05,01,13,01,20.20
2014,05,01,13,02,20.20
2014,05,01,13,03,20.20
2014,05,01,13,04,20.20
2014,05,01,13,05,20.30
2014,05,01,13,06,20.40
2014,05,01,13,07,20.40
2014,05,01,13,08,20.50
2014,05,01,13,09,20.60
2014,05,01,13,10,20.60
2014,05,01,13,11,20.60
2014,05,01,13,12,20.70
2014,05,01,13,13,20.60
2014,05,01,13,14,20.60
2014,05,01,13,15,20.60
2014,05,01,13,16,20.60
2014,05,01,13,17,20.60
2014,05,01,13,18,20.60
2014,05,01,13,19,20.50
2014,05,01,13,20,20.50
2014,05,01,13,21,20.50
2014,05,01,13,22,20.50
2014,05,01,13,23,20.60
2014,05,01,13,24,20.60
2014,05,01,13,25,20.60
2014,05,01,13,26,20.60
2014,05,01,13,27,20.60
2014,05,01,13,28,20.60
2014,05,01,13,29,20.60
2014,05,01,13,30,20.60
2014,05,01,13,31,20.60
2014,05,01,13,32,20.70
2014,05,01,13,33,20.70
2014,05,01,13,34,20.70
2014,05,01,13,35,20.80
2014,05,01,13,36,20.90
2014,05,01,13,37,21.00
2014,05,01,13,38,21.10
2014,05,01,13,39,21.30
2014,05,01,13,40,21.30
2014,05,01,13,41,21.30
2014,05,01,13,42,21.40
2014,05,01,13,43,21.50
2014,05,01,13,44,21.60
2014,05,01,13,45,21.70
2014,05,01,13,46,21.70
2014,05,01,13,47,21.70
2014,05,01,13,48,21.60
2014,05,01,13,49,21.50
2014,05,01,13,50,21.40
2014,05,01,13,51,21.30
2014,05,01,13,52,21.20
2014,05,01,13,53,21.20
2014,05,01,13,54,21.30
2014,05,01,13,55,21.30
2014,05,01,13,56,21.30
2014,05,01,13,57,21.30
2014,05,01,13,58,21.30
2014,05,01,13,59,21.30
2014,05,01,14,00,21.30
2014,05,01,14,01,21.30
2014,05,01,14,02,21.30
2014,05,01,14,03,21.30
2014,05,01,14,04,21.30
2014,05,01,14,05,21.40
2014,05,01,14,06,21.60
2014,05,01,14,07,21.70
2014,05,01,14,08,21.80
2014,05,01,14,09,21.80
2014,05,01,14,10,21.90
2014,05,01,14,11,21.90
2014,05,01,14,12,21.90
2014,05,01,14,13,21.80
2014,05,01,14,14,21.90
2014,05,01,14,15,21.90
2014,05,01,14,16,21.80
2014,05,01,14,17,21.80
2014,05,01,14,18,21.80
2014,05,01,14,19,21.80
2014,05,01,14,20,21.80
2014,05,01,14,21,21.90
2014,05,01,14,22,21.90
2014,05,01,14,23,21.90
2014,05,01,14,24,21.80
2014,05,01,14,25,21.80
2014,05,01,14,26,21.80
2014,05,01,14,27,21.80
2014,05,01,14,28,21.70
2014,05,01,14,29,21.60
2014,05,01,14,30,21.60
2014,05,01,14,31,21.60
2014,05,01,14,32,21.60
2014,05,01,14,33,21.70
2014,05,01,14,34,21.70
2014,05,01,14,35,21.70
2014,05,01,14,36,21.70
2014,05,01,14,37,21.70
2014,05,01,14,38,21.70
2014,05,01,14,39,21.70
2014,05,01,14,40,21.70
2014,05,01,14,41,21.70
2014,05,01,14,42,21.60
2014,05,01,14,43,21.60
2014,05,01,14,44,21.60
2014,05,01,14,45,21.60
2014,05,01,14,46,21.60
2014,05,01,14,47,21.60
2014,05,01,14,48,21.70
2014,05,01,14,49,21.80
2014,05,01,14,50,21.90
2014,05,01,14,51,22.00
2014,05,01,14,52,22.10
2014,05,01,14,53,22.20
2014,05,01,14,54,22.20
2014,05,01,14,55,22.30
2014,05,01,14,56,22.40
2014,05,01,14,57,22.50
2014,05,01,14,58,22.40
2014,05,01,14,59,22.40
2014,05,01,15,00,22.50
2014,05,01,15,01,22.40
2014,05,01,15,02,22.40
2014,05,01,15,03,22.40
2014,05,01,15,04,22.40
2014,05,01,15,05,22.40
2014,05,01,15,06,22.30
2014,05,01,15,07,22.30
2014,05,01,15,08,22.30
2014,05,01,15,09,22.30
2014,05,01,15,10,22.20
2014,05,01,15,11,22.30
2014,05,01,15,12,22.30
2014,05,01,15,13,22.30
2014,05,01,15,14,22.40
2014,05,01,15,15,22.40
2014,05,01,15,16,22.40
2014,05,01,15,17,22.40
2014,05,01,15,18,22.40
2014,05,01,15,19,22.40
2014,05,01,15,20,22.40
2014,05,01,15,21,22.50
2014,05,01,15,22,22.50
2014,05,01,15,23,22.60
2014,05,01,15,24,22.70
2014,05,01,15,25,22.80
2014,05,01,15,26,22.90
2014,05,01,15,27,22.90
2014,05,01,15,28,23.00
2014,05,01,15,29,23.10
2014,05,01,15,30,23.10
2014,05,01,15,31,23.10
2014,05,01,15,32,23.10
2014,05,01,15,33,23.10
2014,05,01,15,34,22.90
2014,05,01,15,35,22.90
2014,05,01,15,36,22.90
2014,05,01,15,37,22.90
2014,05,01,15,38,22.80
2014,05,01,15,39,22.70
2014,05,01,15,40,22.70
2014,05,01,15,41,22.60
2014,05,01,15,42,22.60
2014,05,01,15,43,22.60
2014,05,01,15,44,22.60
2014,05,01,15,45,22.70
2014,05,01,15,46,22.70
2014,05,01,15,47,22.70
2014,05,01,15,48,22.70
2014,05,01,15,49,22.80
2014,05,01,15,50,22.90
2014,05,01,15,51,23.00
2014,05,01,15,52,23.10
2014,05,01,15,53,23.20
2014,05,01,15,54,23.20
2014,05,01,15,55,23.30
2014,05,01,15,56,23.30
2014,05,01,15,57,23.30
2014,05,01,15,58,23.40
2014,05,01,15,59,23.40
2014,05,01,16,00,23.40
2014,05,01,16,01,23.40
2014,05,01,16,02,23.40
2014,05,01,16,03,23.30
2014,05,01,16,04,23.30
2014,05,01,16,05,23.30
2014,05,01,16,06,23.30
2014,05,01,16,07,23.30
2014,05,01,16,08,23.30
2014,05,01,16,09,23.30
2014,05,01,16,10,23.30
2014,05,01,16,11,23.40
2014,05,01,16,12,23.40
2014,05,01,16,13,23.50
2014,05,01,16,14,23.60
2014,05,01,16,15,23.60
2014,05,01,16,16,23.70
2014,05,01,16,17,23.70
2014,05,01,16,18,23.70
2014,05,01,16,19,23.80
2014,05,01,16,20,23.80
2014,05,01,16,21,23.80
2014,05,01,16,22,23.80
2014,05,01,16,23,23.80
2014,05,01,16,24,23.80
2014,05,01,16,25,23.80
2014,05,01,16,26,23.90
2014,05,01,16,27,23.80
2014,05,01,16,28,23.80
2014,05,01,16,29,23.80
2014,05,01,16,30,23.80
2014,05,01,16,31,23.90
2014,05,01,16,32,23.90
2014,05,01,16,33,24.10
2014,05,01,16,34,24.10
2014,05,01,16,35,24.10
2014,05,01,16,36,24.10
2014,05,01,16,37,24.10
2014,05,01,16,38,24.10
2014,05,01,16,39,24.10
2014,05,01,16,40,24.20
2014,05,01,16,41,24.30
2014,05,01,16,42,24.40
2014,05,01,16,43,24.50
2014,05,01,16,44,24.60
2014,05,01,16,45,24.70
2014,05,01,16,46,24.80
2014,05,01,16,47,24.80
2014,05,01,16,48,24.80
2014,05,01,16,49,24.80
2014,05,01,16,50,24.70
2014,05,01,16,51,24.70
2014,05,01,16,52,24.60
2014,05,01,16,53,24.60
2014,05,01,16,54,24.70
2014,05,01,16,55,24.70
2014,05,01,16,56,24.70
2014,05,01,16,57,24.60
2014,05,01,16,58,24.70
2014,05,01,16,59,24.70
2014,05,01,17,00,24.70
2014,05,01,17,01,24.60
2014,05,01,17,02,24.60
2014,05,01,17,03,24.60
2014,05,01,17,04,24.50
2014,05,01,17,05,24.50
2014,05,01,17,06,24.40
2014,05,01,17,07,24.40
2014,05,01,17,08,24.40
2014,05,01,17,09,24.30
2014,05,01,17,10,24.30
2014,05,01,17,11,24.20
2014,05,01,17,12,24.10
2014,05,01,17,13,24.10
2014,05,01,17,14,24.10
2014,05,01,17,15,24.10
2014,05,01,17,16,24.10
2014,05,01,17,17,24.10
2014,05,01,17,18,24.10
2014,05,01,17,19,24.20